Location: Esterri de Aneo
(42.6284°N, 1.1223°E)
Time: 22:26:04
(UTC+00:00)

VELOX 1 - Visible Passes

Search period start: 18 April 2026 00:00
Search period end: 28 April 2026 00:00
Orbit: 569 x 581 km, 98.3° (Epoch: 18 April)

Date Brightness Start Highest point End Pass type
(mag) Time Alt. Az. Time Alt. Az. Time Alt. Az.
18 Apr ? 00:21:02 10° NNW 00:21:12 11° NNW 00:21:12 11° NNW visible
18 Apr ? 22:48:30 10° NNE 22:48:31 10° NNE 22:48:31 10° NNE visible
19 Apr ? 00:24:36 10° NNW 00:24:46 11° NNW 00:24:46 11° NNW visible
19 Apr ? 22:51:54 10° NNE 22:52:05 11° NNE 22:52:05 11° NNE visible
20 Apr ? 00:28:09 10° NNW 00:28:19 11° NNW 00:28:19 11° NNW visible
20 Apr ? 22:55:17 10° NNE 22:55:38 12° NNE 22:55:38 12° NNE visible
21 Apr ? 00:31:44 10° NNW 00:31:52 10° NNW 00:31:52 10° NNW visible
21 Apr ? 22:58:40 10° NNE 22:59:11 13° NNE 22:59:11 13° NNE visible
22 Apr ? 00:35:20 10° NNW 00:35:25 10° NNW 00:35:25 10° NNW visible
22 Apr ? 23:02:03 10° NNE 23:02:43 14° NNE 23:02:43 14° NNE visible
23 Apr ? 23:05:26 10° NNE 23:06:15 16° NNE 23:06:15 16° NNE visible
24 Apr ? 23:08:49 10° NNE 23:09:46 17° NNE 23:09:46 17° NNE visible
25 Apr ? 23:12:12 10° NNE 23:13:18 18° NNE 23:13:18 18° NNE visible
26 Apr ? 23:15:35 10° NNE 23:16:48 19° NNE 23:16:48 19° NNE visible
27 Apr ? 23:18:58 10° NNE 23:20:19 20° NNE 23:20:19 20° NNE visible
